Nampa, ID

6:45 AM MDT on October 22, 2017 (GMT -0600)
Nampa

Weather History for KMAN - December, 2012

Change the Weather History Date:

Monday, December 3, 2012

  Actual Average (KBOI) Record (KBOI)
Temperature  
Mean Temperature 42 °F -  
Max Temperature 51 °F 44 °F 61 °F (2007)
Min Temperature 32 °F 28 °F 14 °F (1891)
Degree Days  
Heating Degree Days 24    
Moisture  
Dew Point 27 °F    
Average Humidity 63    
Maximum Humidity 87    
Minimum Humidity 38    
Precipitation  
Precipitation 0.00 in - - ()
Sea Level Pressure  
Sea Level Pressure 30.16 in    
Wind  
Wind Speed 5 mph (SE)    
Max Wind Speed 12 mph    
Max Gust Speed 17 mph    
Visibility 10 miles    
Events      
Averages and records for this station are not official NWS values.
T = Trace of Precipitation, MM = Missing Value Source: NWS Daily Summary

Daily Weather History Graph

Daily Weather History Graph

Search for Another Location

Airport or City:

Trip Planner

Search our weather history database for the weather conditions in past years. The results will help you decide how hot, cold, wet, or windy it might be!

Date:

Astronomy

Dec. 03, 2012 Rise Set
Actual Time 8:02 AM MST 5:09 PM MST
Civil Twilight 7:29 AM MST 5:42 PM MST
Nautical Twilight 6:54 AM MST 6:18 PM MST
Astronomical Twilight 6:19 AM MST 6:52 PM MST
Moon 10:06 PM MST (12/3) 11:23 AM MST (12/3)
Length of Visible Light 10h 12m
Length of Day
9h 07m
Waning Gibbous, 77% of the Moon is Illuminated
Dec 3
Waning Gibbous
Dec 6
Last Quarter
Dec 13
New
Dec 19
First Quarter
Dec 28
Full

Hourly Weather History & Observations

Time (MST) Temp. Windchill Dew Point Humidity Pressure Visibility Wind Dir Wind Speed Gust Speed Precip Events Conditions
12:15 AM 37.4 °F 34.9 °F 26.6 °F 65% 30.08 in 10.0 mi SE 3.5 mph - N/A   Mostly Cloudy
12:35 AM 37.4 °F - 26.6 °F 65% 30.08 in 10.0 mi Calm Calm - N/A   Partly Cloudy
12:55 AM 37.4 °F 34.9 °F 26.6 °F 65% 30.08 in 10.0 mi SSE 3.5 mph - N/A   Clear
1:15 AM 35.6 °F - 26.6 °F 70% 30.09 in 10.0 mi Calm Calm - N/A   Clear
1:35 AM 33.8 °F 30.8 °F 26.6 °F 75% 30.09 in 10.0 mi ESE 3.5 mph - N/A   Clear
1:55 AM 32.0 °F 25.6 °F 26.6 °F 80% 30.08 in 10.0 mi ESE 6.9 mph - N/A   Clear
2:15 AM 35.6 °F - 26.6 °F 70% 30.08 in 10.0 mi Calm Calm - N/A   Clear
2:35 AM 32.0 °F 26.4 °F 26.6 °F 80% 30.09 in 10.0 mi SE 5.8 mph - N/A   Clear
2:55 AM 32.0 °F 25.6 °F 26.6 °F 80% 30.09 in 10.0 mi ESE 6.9 mph - N/A   Clear
3:15 AM 32.0 °F - 26.6 °F 80% 30.10 in 10.0 mi Calm Calm - N/A   Clear
3:55 AM 33.8 °F 26.4 °F 26.6 °F 75% 30.11 in 10.0 mi ESE 9.2 mph - N/A   Clear
4:15 AM 33.8 °F 28.6 °F 26.6 °F 75% 30.11 in 10.0 mi ESE 5.8 mph - N/A   Clear
4:55 AM 32.0 °F 26.4 °F 26.6 °F 80% 30.10 in 10.0 mi SE 5.8 mph - N/A   Clear
5:15 AM 32.0 °F 26.4 °F 26.6 °F 80% 30.10 in 10.0 mi SE 5.8 mph - N/A   Clear
5:35 AM 33.8 °F 29.6 °F 26.6 °F 75% 30.11 in 10.0 mi SE 4.6 mph - N/A   Clear
5:55 AM 32.0 °F 25.6 °F 26.6 °F 80% 30.11 in 10.0 mi SE 6.9 mph - N/A   Clear
6:15 AM 32.0 °F 26.4 °F 26.6 °F 80% 30.11 in 10.0 mi SE 5.8 mph - N/A   Clear
6:35 AM 32.0 °F 28.7 °F 26.6 °F 80% 30.12 in 10.0 mi SSE 3.5 mph - N/A   Clear
6:55 AM 32.0 °F 26.4 °F 26.6 °F 80% 30.13 in 10.0 mi SSE 5.8 mph - N/A   Clear
7:15 AM 32.0 °F 25.6 °F 28.4 °F 87% 30.14 in 10.0 mi SE 6.9 mph - N/A   Clear
7:35 AM 32.0 °F 26.4 °F 26.6 °F 80% 30.15 in 10.0 mi SSE 5.8 mph - N/A   Partly Cloudy
7:55 AM 32.0 °F 25.6 °F 26.6 °F 80% 30.17 in 10.0 mi SSE 6.9 mph - N/A   Partly Cloudy
8:15 AM 32.0 °F 26.4 °F 26.6 °F 80% 30.17 in 10.0 mi SSE 5.8 mph - N/A   Clear
8:35 AM 32.0 °F 28.7 °F 26.6 °F 80% 30.17 in 10.0 mi SSE 3.5 mph - N/A   Clear
8:55 AM 35.6 °F 29.2 °F 26.6 °F 70% 30.17 in 10.0 mi SSE 8.1 mph - N/A   Clear
9:55 AM 39.2 °F 35.0 °F 28.4 °F 65% 30.18 in 10.0 mi SSE 5.8 mph - N/A   Mostly Cloudy
10:15 AM 41.0 °F 35.8 °F 28.4 °F 61% 30.19 in 10.0 mi SSE 8.1 mph - N/A   Overcast
10:35 AM 42.8 °F 36.6 °F 28.4 °F 57% 30.20 in 10.0 mi SSE 11.5 mph 16.1 mph N/A   Overcast
10:55 AM 44.6 °F 39.2 °F 28.4 °F 53% 30.21 in 10.0 mi SSE 10.4 mph - N/A   Overcast
11:15 AM 46.4 °F 41.9 °F 28.4 °F 50% 30.20 in 10.0 mi SE 9.2 mph - N/A   Overcast
11:35 AM 48.2 °F - 28.4 °F 46% 30.21 in 10.0 mi SSE 9.2 mph - N/A   Overcast
11:55 AM 50.0 °F - 28.4 °F 43% 30.20 in 10.0 mi SE 8.1 mph - N/A   Overcast
12:15 PM 50.0 °F - 28.4 °F 43% 30.20 in 10.0 mi SE 10.4 mph 16.1 mph N/A   Overcast
12:35 PM 50.0 °F - 26.6 °F 40% 30.20 in 10.0 mi SE 6.9 mph - N/A   Scattered Clouds
12:55 PM 50.0 °F - 26.6 °F 40% 30.19 in 10.0 mi SSE 4.6 mph - N/A   Clear
1:15 PM 50.0 °F - 26.6 °F 40% 30.19 in 10.0 mi South 4.6 mph - N/A   Clear
1:35 PM 50.0 °F - 26.6 °F 40% 30.19 in 10.0 mi SSE 3.5 mph - N/A   Clear
1:55 PM 50.0 °F - 26.6 °F 40% 30.19 in 10.0 mi SE 3.5 mph - N/A   Clear
2:15 PM 50.0 °F - 26.6 °F 40% 30.19 in 10.0 mi SW 5.8 mph - N/A   Clear
2:35 PM 50.0 °F - 26.6 °F 40% 30.18 in 10.0 mi South 3.5 mph - N/A   Clear
2:55 PM 51.8 °F - 26.6 °F 38% 30.17 in 10.0 mi ESE 4.6 mph - N/A   Clear
3:15 PM 51.8 °F - 26.6 °F 38% 30.17 in 10.0 mi ESE 5.8 mph - N/A   Clear
3:35 PM 50.0 °F - 26.6 °F 40% 30.18 in 10.0 mi SSE 4.6 mph - N/A   Clear
3:55 PM 50.0 °F - 26.6 °F 40% 30.18 in 10.0 mi SE 4.6 mph - N/A   Clear
4:15 PM 50.0 °F - 26.6 °F 40% 30.18 in 10.0 mi SE 4.6 mph - N/A   Clear
4:55 PM 48.2 °F - 28.4 °F 46% 30.18 in 10.0 mi ESE 8.1 mph - N/A   Clear
5:15 PM 46.4 °F 42.4 °F 28.4 °F 50% 30.18 in 10.0 mi ESE 8.1 mph - N/A   Clear
5:35 PM 44.6 °F 41.4 °F 28.4 °F 53% 30.18 in 10.0 mi SE 5.8 mph - N/A   Clear
5:55 PM 44.6 °F 40.2 °F 28.4 °F 53% 30.18 in 10.0 mi ESE 8.1 mph - N/A   Clear
6:15 PM 42.8 °F 39.3 °F 28.4 °F 57% 30.18 in 10.0 mi SE 5.8 mph - N/A   Clear
6:35 PM 41.0 °F 37.1 °F 28.4 °F 61% 30.19 in 10.0 mi SE 5.8 mph - N/A   Clear
6:55 PM 39.2 °F 35.0 °F 28.4 °F 65% 30.19 in 10.0 mi South 5.8 mph - N/A   Clear
7:15 PM 37.4 °F 32.8 °F 28.4 °F 70% 30.19 in 10.0 mi SE 5.8 mph - N/A   Clear
7:35 PM 37.4 °F 32.8 °F 28.4 °F 70% 30.18 in 10.0 mi SSE 5.8 mph - N/A   Clear
7:55 PM 37.4 °F 32.1 °F 30.2 °F 75% 30.18 in 10.0 mi SSE 6.9 mph - N/A   Clear
8:15 PM 37.4 °F 32.8 °F 28.4 °F 70% 30.18 in 10.0 mi SSE 5.8 mph - N/A   Clear
8:35 PM 35.6 °F 30.7 °F 28.4 °F 75% 30.18 in 10.0 mi South 5.8 mph - N/A   Clear
8:55 PM 35.6 °F 29.2 °F 28.4 °F 75% 30.18 in 10.0 mi South 8.1 mph - N/A   Clear
9:15 PM 35.6 °F 30.7 °F 28.4 °F 75% 30.17 in 10.0 mi SSE 5.8 mph - N/A   Clear
9:35 PM 37.4 °F 32.1 °F 30.2 °F 75% 30.17 in 10.0 mi SSE 6.9 mph - N/A   Clear
9:55 PM 39.2 °F 34.2 °F 28.4 °F 65% 30.17 in 10.0 mi South 6.9 mph - N/A   Clear
10:15 PM 39.2 °F 33.6 °F 28.4 °F 65% 30.17 in 10.0 mi South 8.1 mph - N/A   Clear
10:35 PM 39.2 °F 33.0 °F 28.4 °F 65% 30.16 in 10.0 mi South 9.2 mph - N/A   Clear
10:55 PM 39.2 °F 32.0 °F 28.4 °F 65% 30.16 in 10.0 mi SSE 11.5 mph 17.3 mph N/A   Partly Cloudy
11:15 PM 41.0 °F 34.3 °F 28.4 °F 61% 30.15 in 10.0 mi SSE 11.5 mph - N/A   Scattered Clouds
11:35 PM 41.0 °F 35.8 °F 28.4 °F 61% 30.14 in 10.0 mi SE 8.1 mph - N/A   Scattered Clouds
11:55 PM 41.0 °F 34.7 °F 28.4 °F 61% 30.13 in 10.0 mi SE 10.4 mph - N/A   Mostly Cloudy